Volver al catálogo

STARLINK-34136

ActivoComunicacionesVLEO
NORAD 64112·PAYLOAD·🇺🇸 United States

Lanzado May 23, 2025 desde Vandenberg Space Force Base

Loading…

Próximos Pases (próximas 24 horas)

TLE

ActualizadoSource: CelesTrak SupGP

Época: Sep 14, 2026, 20:59 UTC

1 64112C 25110S   26257.87479167  .00036236  00000+0  11646-2 0  2570
2 64112  53.1590 226.4711 0001407  88.7244 116.6062 15.31702294    14

Sigue STARLINK-34136 en tiempo real con AllMySat

Download on the App Store